When you browse on this site, cookies collect data to enhance your experience and personalize the content and advertising you see.
Visit our Privacy Policy to learn more. By continuing to use the site, you agree to this use of cookies and data.
  • In Lithuania
  • List of Countries
  • For 7 days
  • Water Temperature
  • Satellite Maps
  • Weather Map
  • Weather Widgets
  • user-avatar
    Login

    Hourly Weather Malanje

    Today, 11 December, Tuesday

    Time Temperature Precipitation Wind Pressure Humidity
    00:00 +19°C° 0 mm 1 mps 667 mmHg 97%
    01:00 +18°C° 0 mm 1 mps 667 mmHg 98%
    02:00 +18°C° 0 mm 1 mps 666 mmHg 98%
    03:00 +18°C° 0 mm 1 mps 666 mmHg 98%
    04:00 +18°C° 0 mm 1 mps 666 mmHg 98%
    05:00 +18°C° 0 mm 1 mps 666 mmHg 97%
    06:00 +17°C° 0 mm 0 mps 667 mmHg 96%
    07:00 +18°C° 0 mm 0 mps 667 mmHg 95%
    08:00 +22°C° 0 mm 1 mps 668 mmHg 88%
    09:00 +23°C° 0 mm 1 mps 668 mmHg 81%
    10:00 +25°C° 0 mm 1 mps 668 mmHg 74%
    11:00 +26°C° 0.5 mm 2 mps 668 mmHg 73%
    12:00 +26°C° 0.5 mm 2 mps 667 mmHg 72%
    13:00 +27°C° 0.5 mm 2 mps 667 mmHg 71%
    14:00 +26°C° 1.1 mm 2 mps 666 mmHg 76%
    15:00 +26°C° 1.1 mm 2 mps 665 mmHg 81%
    16:00 +25°C° 1.1 mm 2 mps 665 mmHg 86%
    17:00 +24°C° 0.7 mm 2 mps 665 mmHg 89%
    18:00 +21°C° 0.7 mm 2 mps 665 mmHg 92%
    19:00 +20°C° 0.7 mm 2 mps 665 mmHg 95%
    20:00 +19°C° 0.2 mm 2 mps 665 mmHg 96%
    21:00 +20°C° 0.2 mm 1 mps 666 mmHg 96%
    22:00 +20°C° 0.2 mm 1 mps 666 mmHg 97%
    23:00 +18°C° 0.1 mm 2 mps 666 mmHg 97%

    Tomorrow, 12 December, Wednesday

    Time Temperature Precipitation Wind Pressure Humidity
    00:00 +18°C° 0.1 mm 2 mps 666 mmHg 98%
    01:00 +18°C° 0.1 mm 2 mps 665 mmHg 98%
    02:00 +18°C° 0.2 mm 2 mps 665 mmHg 98%
    03:00 +18°C° 0.2 mm 2 mps 665 mmHg 98%
    04:00 +18°C° 0.2 mm 2 mps 665 mmHg 98%
    05:00 +18°C° 0.4 mm 2 mps 666 mmHg 97%
    06:00 +19°C° 0.4 mm 2 mps 666 mmHg 97%
    07:00 +19°C° 0.4 mm 2 mps 666 mmHg 96%
    08:00 +20°C° 0.1 mm 2 mps 667 mmHg 91%
    09:00 +21°C° 0.1 mm 2 mps 667 mmHg 86%
    10:00 +23°C° 0.1 mm 2 mps 668 mmHg 81%
    11:00 +24°C° 0.1 mm 2 mps 667 mmHg 77%
    12:00 +25°C° 0.1 mm 2 mps 667 mmHg 73%
    13:00 +26°C° 0.1 mm 2 mps 667 mmHg 69%
    14:00 +26°C° 0.4 mm 2 mps 666 mmHg 72%
    15:00 +26°C° 0.4 mm 1 mps 666 mmHg 75%
    16:00 +25°C° 0.4 mm 1 mps 665 mmHg 78%
    17:00 +24°C° 0.2 mm 1 mps 665 mmHg 82%
    18:00 +23°C° 0.2 mm 1 mps 666 mmHg 86%
    19:00 +21°C° 0.2 mm 1 mps 666 mmHg 90%
    20:00 +21°C° 0.2 mm 1 mps 666 mmHg 90%
    21:00 +20°C° 0.2 mm 1 mps 667 mmHg 91%
    22:00 +20°C° 0.2 mm 1 mps 667 mmHg 91%
    23:00 +20°C° 0 mm 1 mps 667 mmHg 92%

    Day after tomorrow, 13 December, Thursday

    Time Temperature Precipitation Wind Pressure Humidity
    00:00 +20°C° 0 mm 1 mps 666 mmHg 93%
    01:00 +19°C° 0 mm 1 mps 666 mmHg 94%
    02:00 +20°C° 0 mm 1 mps 666 mmHg 95%
    03:00 +20°C° 0 mm 1 mps 666 mmHg 97%
    04:00 +20°C° 0 mm 1 mps 665 mmHg 98%
    05:00 +20°C° 0 mm 1 mps 666 mmHg 97%
    06:00 +20°C° 0 mm 1 mps 666 mmHg 96%
    07:00 +21°C° 0 mm 1 mps 667 mmHg 95%
    08:00 +22°C° 0 mm 1 mps 667 mmHg 91%
    09:00 +23°C° 0 mm 1 mps 668 mmHg 86%
    10:00 +24°C° 0 mm 1 mps 668 mmHg 82%
    11:00 +25°C° 0 mm 1 mps 667 mmHg 77%
    12:00 +26°C° 0 mm 1 mps 667 mmHg 73%
    13:00 +27°C° 0 mm 2 mps 666 mmHg 68%
    14:00 +27°C° 1.1 mm 2 mps 666 mmHg 73%
    15:00 +27°C° 1.1 mm 2 mps 665 mmHg 78%
    16:00 +26°C° 1.1 mm 2 mps 665 mmHg 83%
    17:00 +25°C° 1 mm 2 mps 665 mmHg 87%
    18:00 +23°C° 1 mm 1 mps 665 mmHg 91%
    19:00 +21°C° 1 mm 1 mps 665 mmHg 95%
    20:00 +21°C° 0.4 mm 1 mps 666 mmHg 96%
    21:00 +20°C° 0.4 mm 1 mps 666 mmHg 96%
    22:00 +20°C° 0.4 mm 1 mps 667 mmHg 97%
    23:00 +20°C° 0.1 mm 1 mps 666 mmHg 97%

    14 December, Friday

    Time Temperature Precipitation Wind Pressure Humidity
    00:00 +19°C° 0.1 mm 2 mps 666 mmHg 98%
    01:00 +18°C° 0.1 mm 2 mps 666 mmHg 98%
    02:00 +19°C° 0.7 mm 2 mps 666 mmHg 98%
    03:00 +20°C° 0.7 mm 1 mps 666 mmHg 98%
    04:00 +20°C° 0.7 mm 1 mps 666 mmHg 99%
    05:00 +20°C° 2.3 mm 1 mps 667 mmHg 98%
    06:00 +19°C° 2.3 mm 2 mps 667 mmHg 98%
    07:00 +19°C° 2.3 mm 2 mps 668 mmHg 97%
    08:00 +20°C° 0.3 mm 2 mps 668 mmHg 92%
    09:00 +23°C° 0.3 mm 2 mps 668 mmHg 86%
    10:00 +24°C° 0.3 mm 2 mps 668 mmHg 81%
    11:00 +25°C° 0.7 mm 2 mps 667 mmHg 79%
    12:00 +26°C° 0.7 mm 2 mps 666 mmHg 77%
    13:00 +27°C° 0.7 mm 2 mps 665 mmHg 76%
    14:00 +26°C° 1 mm 2 mps 665 mmHg 79%
    15:00 +26°C° 1 mm 2 mps 665 mmHg 83%
    16:00 +26°C° 1 mm 2 mps 665 mmHg 86%
    17:00 +24°C° 0.8 mm 2 mps 665 mmHg 89%
    18:00 +22°C° 0.8 mm 1 mps 665 mmHg 91%
    19:00 +21°C° 0.8 mm 1 mps 665 mmHg 94%
    20:00 +20°C° 0.1 mm 1 mps 666 mmHg 94%
    21:00 +20°C° 0.1 mm 1 mps 666 mmHg 95%
    22:00 +20°C° 0.1 mm 1 mps 667 mmHg 95%
    23:00 +20°C° 0.1 mm 1 mps 666 mmHg 96%

    15 December, Saturday

    Time Temperature Precipitation Wind Pressure Humidity
    00:00 +19°C° 0.1 mm 2 mps 666 mmHg 97%
    01:00 +18°C° 0.1 mm 2 mps 666 mmHg 98%
    02:00 +18°C° 0.2 mm 2 mps 666 mmHg 98%
    03:00 +19°C° 0.2 mm 2 mps 666 mmHg 98%
    04:00 +19°C° 0.2 mm 2 mps 666 mmHg 98%
    05:00 +19°C° 0.1 mm 2 mps 666 mmHg 98%
    06:00 +20°C° 0.1 mm 1 mps 667 mmHg 97%
    07:00 +20°C° 0.1 mm 1 mps 667 mmHg 97%
    08:00 +22°C° 0.2 mm 1 mps 667 mmHg 91%
    09:00 +23°C° 0.2 mm 1 mps 668 mmHg 85%
    10:00 +25°C° 0.2 mm 1 mps 668 mmHg 79%
    11:00 +26°C° 0.3 mm 2 mps 667 mmHg 75%
    12:00 +27°C° 0.3 mm 2 mps 667 mmHg 71%
    13:00 +28°C° 0.3 mm 2 mps 666 mmHg 66%
    14:00 +27°C° 0.7 mm 2 mps 666 mmHg 73%
    15:00 +26°C° 0.7 mm 2 mps 665 mmHg 79%
    16:00 +26°C° 0.7 mm 2 mps 665 mmHg 85%
    17:00 +24°C° 0.4 mm 2 mps 665 mmHg 88%
    18:00 +23°C° 0.4 mm 2 mps 665 mmHg 91%
    19:00 +21°C° 0.4 mm 1 mps 666 mmHg 93%
    20:00 +21°C° 0.2 mm 1 mps 666 mmHg 94%
    21:00 +21°C° 0.2 mm 1 mps 666 mmHg 94%
    22:00 +20°C° 0.2 mm 1 mps 667 mmHg 94%
    23:00 +20°C° 0.1 mm 1 mps 666 mmHg 94%

    16 December, Sunday

    Time Temperature Precipitation Wind Pressure Humidity
    00:00 +20°C° 0.1 mm 1 mps 666 mmHg 95%
    01:00 +20°C° 0.1 mm 1 mps 666 mmHg 95%
    02:00 +20°C° 0.2 mm 1 mps 665 mmHg 95%
    03:00 +20°C° 0.2 mm 1 mps 665 mmHg 96%
    04:00 +19°C° 0.2 mm 1 mps 665 mmHg 97%
    05:00 +20°C° 0.1 mm 1 mps 666 mmHg 96%
    06:00 +20°C° 0.1 mm 1 mps 666 mmHg 96%
    07:00 +20°C° 0.1 mm 1 mps 667 mmHg 96%
    08:00 +21°C° 0 mm 1 mps 667 mmHg 93%
    09:00 +22°C° 0 mm 1 mps 667 mmHg 89%
    10:00 +23°C° 0 mm 1 mps 667 mmHg 85%
    11:00 +25°C° 0 mm 2 mps 666 mmHg 77%
    12:00 +26°C° 0 mm 2 mps 666 mmHg 70%
    13:00 +28°C° 0 mm 3 mps 666 mmHg 62%
    14:00 +27°C° 0.1 mm 3 mps 665 mmHg 65%
    15:00 +27°C° 0.1 mm 3 mps 665 mmHg 67%
    16:00 +27°C° 0.1 mm 3 mps 665 mmHg 70%
    17:00 +25°C° 0 mm 2 mps 665 mmHg 76%
    18:00 +23°C° 0 mm 2 mps 665 mmHg 82%
    19:00 +22°C° 0 mm 1 mps 665 mmHg 88%
    20:00 +21°C° 0 mm 1 mps 665 mmHg 89%
    21:00 +21°C° 0 mm 1 mps 666 mmHg 90%
    22:00 +20°C° 0 mm 1 mps 666 mmHg 90%
    23:00 +20°C° 0.1 mm 1 mps 666 mmHg 92%
    Show more